#timestamp,LO_Frequency,Hit,StdDev 
1521838815.8,286047000.0,N
1521838835.7,286046998.2,N
1521838855.5,286047001.1,N
1521838875.4,286047001.2,N
1521838895.2,286047000.7,N
1521838915.0,286047000.4,N
1521838915.9,286047000.4,N
1521838935.8,286047001.0,N
1521838955.6,286046998.3,N
1521838975.5,286046999.3,N
1521838995.3,286046998.6,N
1521839015.1,286047002.8,N
1521839035.9,286047001.5,N
1521839055.7,286047002.3,N
1521839075.5,286047002.5,N
1521839095.4,286047001.6,N
1521839115.2,286047001.6,N
1521839135.1,286047004.4,Y
1521839136.0,286047004.4,P
1521839155.8,286047002.4,N
1521839175.6,286046999.7,N
1521839195.5,286047002.8,N
1521839215.3,286047000.1,N
1521839235.1,286047002.3,N
1521839255.9,286047000.3,N
1521839275.7,286047000.4,N
1521839295.6,286047000.2,N
1521839315.4,286047000.3,N
1521839335.2,286047000.2,N
1521839355.1,286047002.0,N
1521839356.0,286047002.0,N
1521839375.8,286047003.4,N
1521839395.7,286047001.5,N
1521839415.5,286047002.6,N
1521839435.3,286046999.9,N
1521839455.2,286046998.2,N
1521839475.9,286047000.0,N
1521839495.7,286047002.1,N
1521839515.6,286046999.7,N
1521839535.4,286046999.8,N
1521839555.3,286046998.8,N
1521839575.1,286046998.3,N
1521839576.0,286046998.3,N
1521839595.8,286046999.2,N
1521839615.7,286047001.1,N
1521839635.5,286046998.0,N
1521839655.4,286046995.1,Y
1521839675.2,286046996.3,P
1521839695.0,286046994.0,N
1521839695.9,286046994.0,N
1521839715.8,286046994.7,N
1521839735.6,286046993.7,N
1521839755.4,286046996.0,N
1521839775.3,286046994.4,N
1521839795.1,286046992.2,Y
1521839815.9,286046994.9,P
1521839835.7,286046995.9,P
1521839855.5,286046993.4,P
1521839875.4,286046993.9,Y
1521839895.2,286046999.5,P
1521839915.1,286047000.7,N
1521839916.0,286047000.7,N
1521839935.8,286046998.6,N
1521839955.6,286047002.3,N
1521839975.5,286047001.8,N
1521839995.3,286047004.3,N
1521840015.1,286047004.2,N
1521840035.9,286047002.8,N
1521840055.7,286047001.1,N
1521840075.6,286046996.8,N
1521840095.4,286046996.8,N
1521840115.2,286046999.2,N
1521840135.1,286046997.0,N
1521840136.0,286046997.0,N
1521840155.8,286046995.0,N
1521840175.6,286046997.5,N
1521840195.5,286046997.1,N
1521840215.3,286046996.7,N
1521840235.2,286046999.5,N
1521840255.9,286047001.2,N
1521840275.7,286046999.5,N
1521840295.6,286046998.9,N
1521840315.4,286047000.1,N
1521840335.2,286046999.9,N
1521840355.1,286046998.7,N
1521840356.0,286046998.7,N
1521840375.8,286046998.6,N
1521840395.7,286047000.8,N
1521840415.5,286047001.1,N
1521840435.3,286047000.6,N
1521840455.2,286047002.2,N
1521840475.0,286047002.3,N
1521840475.9,286047002.3,N
1521840495.8,286046999.6,N
1521840515.6,286046997.6,N
1521840535.4,286046997.5,N
1521840555.3,286046996.7,N
1521840575.1,286046999.1,N
1521840595.9,286046997.7,N
1521840615.7,286046995.0,N
1521840635.5,286046996.8,N
1521840655.4,286046997.4,N
1521840675.2,286046997.6,N
1521840695.0,286046997.8,N
1521840696.0,286046997.8,N
1521840715.8,286046994.9,N
1521840735.6,286046997.7,N
1521840755.5,286046995.4,N
1521840775.3,286046995.2,N
1521840795.1,286046995.2,N
1521840815.9,286046995.2,N
1521840835.7,286046997.4,N
1521840855.6,286046997.7,N
1521840875.4,286046998.0,N
1521840895.2,286046996.1,N
1521840915.1,286046996.0,N
1521840916.0,286046996.0,N
1521840935.8,286046992.0,Y
1521840955.7,286046996.0,P
1521840975.5,286046993.5,P
1521840995.3,286046994.2,P
1521841015.2,286046992.4,Y
1521841035.0,286046999.5,P
1521841035.9,286046999.5,N
1521841055.8,286046998.0,N
1521841075.6,286046997.8,N
1521841095.4,286046997.4,N
1521841115.3,286046999.0,N
1521841135.1,286046998.3,N
1521841155.8,286047000.5,N
1521841175.7,286047000.1,N
1521841195.5,286047001.1,N
1521841215.4,286046998.7,N
1521841235.2,286046999.0,N
1521841255.0,286046997.9,N
1521841255.9,286046997.9,N
1521841275.8,286046995.4,Y
1521841295.6,286046997.3,P
1521841315.5,286046994.9,P
1521841335.3,286046997.1,N
1521841355.1,286046995.7,Y
1521841375.9,286046998.1,P
1521841395.7,286047002.1,P
1521841415.6,286046999.9,N
1521841435.4,286047001.1,N
1521841455.2,286046998.3,N
1521841475.1,286047001.2,N
1521841476.0,286047001.2,N
1521841495.8,286046998.6,N
1521841515.6,286047000.6,N
1521841535.5,286047000.3,N
1521841555.3,286047000.7,N
1521841575.2,286047000.3,N
1521841595.9,286047002.3,N
1521841615.7,286047004.1,N
1521841635.6,286047004.4,N
1521841655.4,286047002.9,N
1521841675.2,286047003.4,N
1521841695.1,286047003.7,N
1521841696.0,286047003.7,N
1521841715.8,286047001.6,N
1521841735.7,286047002.0,N
1521841755.5,286047001.8,N
1521841775.3,286047001.3,N
1521841795.2,286047003.3,N
1521841815.0,286047006.0,Y
1521841815.9,286047006.0,P
1521841835.7,286047003.2,N
1521841855.6,286047003.7,N
1521841875.4,286047003.5,N
1521841895.3,286047004.4,N
1521841915.1,286047001.7,N
1521841916.0,286047001.7,N
1521841935.8,286047003.3,N
1521841955.7,286047006.0,Y
1521841975.5,286046999.7,P
1521841995.4,286047002.2,N
1521842015.2,286047002.6,N
1521842035.0,286047001.8,N
1521842035.9,286047001.8,N
1521842055.8,286047002.8,N
1521842075.6,286047001.9,N
1521842095.4,286047004.4,Y
1521842115.3,286047000.6,P
1521842135.1,286046999.9,N
1521842155.9,286047002.7,P
1521842175.7,286047002.2,N
1521842195.5,286047001.7,N
1521842215.4,286047003.5,Y
1521842235.2,286047001.8,P
1521842255.0,286047001.8,P
1521842256.0,286047001.8,P
1521842275.8,286047002.2,Y
1521842295.6,286047000.7,P
1521842315.5,286047000.7,N
1521842335.3,286047000.5,N
1521842355.1,286047000.0,N
1521842375.9,286046999.9,N
1521842395.7,286046999.7,N
